[ hide orbit diagram ]
For accurate long-term ephemerides, please instead use our Horizons system.This orbit viewer was implemented using two-body methods, and hence should not be used for determining accurate long-term trajectories (over several years or decades) or planetary encounter circumstances.
Orbital Elements at Epoch 2459200.5 (2020-Dec-17.0) TDB
Reference: JPL 36 (heliocentric ecliptic J2000)
Element | Value | Uncertainty (1-sigma) | Units |
e | .1560610381177555 | 1.9304e-08 | |
a | 2.216220193077679 | 5.7359e-09 | au |
q | 1.870354569048443 | 4.4571e-08 | au |
i | 5.151028116609862 | 8.4578e-07 | deg |
node | 46.11009056833751 | 9.5829e-06 | deg |
peri | 282.3145163611471 | 1.1091e-05 | deg |
M | 352.1439031705511 | 5.1143e-06 | deg |
tp | 2459226.797963315017 (2021-Jan-12.29796332) | 1.7163e-05 | TDB |
period | 1205.08529858206 3.30 | 4.6784e-06 1.281e-08 | d yr |
n | .2987340401742407 | 1.1598e-09 | deg/d |
Q | 2.562085817106913 | 6.6311e-09 | au |
|
| | Orbit Determination Parameters
Additional Information
|
[ show covariance matrix ]
Physical Parameter Table
Parameter |
Symbol |
Value |
Units |
Sigma |
Reference |
Notes |
absolute magnitude |
H |
13.75 |
|
n/a |
E2021B10 |
|
diameter |
diameter |
5.026 |
km |
0.086 |
urn:nasa:pds:neowise_diameters_albedos::2.0[mainbelt] (http://adsabs.harvard.edu/abs/2014ApJ...791..121M) |
|
rotation period |
rot_per |
4.784 |
h |
n/a |
LCDB (Rev. 2020-October); Warner et al., 2009 |
Published Reference List: [Ditteon, R.; Black, S.; Masner, Z.; Osborne, J.; Trent, L. (2018) Minor Planet Bull. 45, 338-340.] |
geometric albedo |
albedo |
0.273 |
|
0.045 |
urn:nasa:pds:neowise_diameters_albedos::2.0[mainbelt] (http://adsabs.harvard.edu/abs/2011ApJ...741...68M) |
|
|
2558 Viv (1981 SP1) Discovered 1981-Sep-26 by Thomas, N. G. at Flagstaff (AM) |
Discovered at the Anderson Mesa station, which is operated by the Lowell Observatory. |
Reference: DISCOVERY.DB | Last Updated: 2003-08-29 |
|
Alternate Designations
1981 SP1 = 1968 UR1 = 1971 QH1 = 1977 JH = 1978 VS7 = 1981 TN4 = A915 TC |
|
|